Location: Łódź
(51.7951°N, 19.4477°E)
Time: 14:26:48
(UTC+01:00)

ISS - Pass Details

Date: 25 January 2019
Orbit: 403 x 411 km, 51.6° (Epoch: 20 February)

Event Time Altitude Azimuth Distance (km) Brightness Sun altitude
Rises 18:28:21 0° 231° (SW) 2,329 1.0 -19.9°
Reaches altitude 10° 18:30:30 10° 224° (SW) 1,473 -0.3 -20.2°
Enters shadow 18:32:58 34° 183° (S) 698 -2.6 -20.6°
